Location: Ch?enovice
(49.7164°N, 15.2160°E)
Time: 16:12:47
(UTC+00:00)

Cosmos 2082 Rocket - Pass Details

Date: 23 May 2024
Orbit: 832 x 853 km, 71.0° (Epoch: 12 June)

Event Time Altitude Azimuth Distance (km) Brightness Sun altitude
Exits shadow 00:07:04 30° 208° (SSW) 1,480 2.9 -17.9°
Maximum altitude 00:10:01 89° 294° (WNW) 861 2.2 -17.8°
Drops below altitude 10° 00:15:46 10° 29° (NNE) 2,493 5.9 -17.4°
Sets 00:18:14 0° 30° (NNE) 3,431 7.0 -17.3°
